Time,TemperatureF,DewpointF,PressureIn,WindDirection,WindDirectionDegrees,WindSpeedMPH,WindSpeedGustMPH,Humidity,HourlyPrecipIn,Conditions,Clouds,dailyrainin,SoftwareType,DateUTC
2013-03-01 00:02:00,27.0,26.0,-100.00,North,350,6.0,12.0,95,0.00,,,-99.99,,2013-03-01 06:02:00,
2013-03-01 00:11:00,27.0,26.0,-100.00,North,5,5.0,11.0,95,0.00,,,-99.99,,2013-03-01 06:11:00,
2013-03-01 00:21:00,27.0,26.0,-100.00,NNW,340,7.0,11.0,95,0.00,,,-99.99,,2013-03-01 06:21:00,
2013-03-01 00:32:00,27.0,26.0,-100.00,NNW,330,6.0,11.0,95,0.00,,,-99.99,,2013-03-01 06:32:00,
2013-03-01 00:42:00,27.0,26.0,-100.00,NNW,330,6.0,11.0,95,0.00,,,-99.99,,2013-03-01 06:42:00,
2013-03-01 00:52:00,27.0,26.0,-100.00,NNW,340,6.0,10.0,95,0.00,,,-99.99,,2013-03-01 06:52:00,
2013-03-01 01:02:00,27.0,26.0,-100.00,North,350,4.0,10.0,95,0.00,,,-99.99,,2013-03-01 07:02:00,
2013-03-01 01:11:00,27.0,26.0,-100.00,NNW,345,4.0,9.0,95,0.00,,,-99.99,,2013-03-01 07:11:00,
2013-03-01 01:22:00,27.0,26.0,-100.00,NNW,330,6.0,8.0,95,0.00,,,-99.99,,2013-03-01 07:22:00,
2013-03-01 01:32:00,27.0,26.0,-100.00,NNW,340,6.0,9.0,95,0.00,,,-99.99,,2013-03-01 07:32:00,
2013-03-01 01:42:00,27.0,26.0,-100.00,NNW,340,6.0,9.0,95,0.00,,,-99.99,,2013-03-01 07:42:00,
2013-03-01 01:52:00,27.0,26.0,-100.00,NNW,335,7.0,12.0,95,0.00,,,-99.99,,2013-03-01 07:52:00,
2013-03-01 02:02:00,27.0,26.0,-100.00,NNW,335,7.0,12.0,95,0.00,,,-99.99,,2013-03-01 08:02:00,
2013-03-01 02:11:00,27.0,26.0,-100.00,NNW,335,6.0,12.0,95,0.00,,,-99.99,,2013-03-01 08:11:00,
2013-03-01 02:22:00,27.0,26.0,-100.00,North,10,7.0,12.0,95,0.00,,,-99.99,,2013-03-01 08:22:00,
2013-03-01 02:32:00,27.0,26.0,-100.00,NNW,340,6.0,11.0,95,0.00,,,-99.99,,2013-03-01 08:32:00,
2013-03-01 02:42:00,27.0,26.0,-100.00,NNW,340,6.0,11.0,95,0.00,,,-99.99,,2013-03-01 08:42:00,
2013-03-01 02:52:00,26.0,25.0,-100.00,NNW,340,6.0,9.0,95,0.00,,,-99.99,,2013-03-01 08:52:00,
2013-03-01 03:02:00,26.0,25.0,-100.00,NNW,340,6.0,9.0,95,0.00,,,-99.99,,2013-03-01 09:02:00,
2013-03-01 03:11:00,26.0,25.0,-100.00,North,350,4.0,9.0,95,0.00,,,-99.99,,2013-03-01 09:11:00,
2013-03-01 03:22:00,26.0,25.0,-100.00,NNW,335,6.0,10.0,95,0.00,,,-99.99,,2013-03-01 09:22:00,
2013-03-01 03:32:00,26.0,25.0,-100.00,NNW,345,6.0,10.0,95,0.00,,,-99.99,,2013-03-01 09:32:00,
2013-03-01 03:42:00,26.0,25.0,-100.00,NNW,335,6.0,11.0,95,0.00,,,-99.99,,2013-03-01 09:42:00,
2013-03-01 03:52:00,26.0,25.0,-100.00,NNW,340,6.0,12.0,95,0.00,,,-99.99,,2013-03-01 09:52:00,
2013-03-01 04:02:00,26.0,25.0,-100.00,NNW,340,6.0,11.0,95,0.00,,,-99.99,,2013-03-01 10:02:00,
2013-03-01 04:11:00,26.0,25.0,-100.00,NNW,330,7.0,10.0,95,0.00,,,-99.99,,2013-03-01 10:11:00,
2013-03-01 04:21:00,26.0,25.0,-100.00,NNW,340,6.0,11.0,95,0.00,,,-99.99,,2013-03-01 10:21:00,
2013-03-01 04:32:00,26.0,25.0,-100.00,NNW,335,6.0,9.0,95,0.00,,,-99.99,,2013-03-01 10:32:00,
2013-03-01 04:42:00,26.0,25.0,-100.00,NNW,335,6.0,9.0,95,0.00,,,-99.99,,2013-03-01 10:42:00,
2013-03-01 04:52:00,27.0,25.0,-100.00,North,5,4.0,7.0,95,0.00,,,-99.99,,2013-03-01 10:52:00,
2013-03-01 05:01:00,27.0,25.0,-100.00,North,5,4.0,7.0,95,0.00,,,-99.99,,2013-03-01 11:01:00,
2013-03-01 05:11:00,27.0,25.0,-100.00,NNW,345,4.0,7.0,95,0.00,,,-99.99,,2013-03-01 11:11:00,
2013-03-01 05:22:00,26.0,25.0,-100.00,NNW,340,6.0,10.0,95,0.00,,,-99.99,,2013-03-01 11:22:00,
2013-03-01 05:32:00,26.0,25.0,-100.00,NNW,345,7.0,10.0,95,0.00,,,-99.99,,2013-03-01 11:32:00,
2013-03-01 05:42:00,26.0,25.0,-100.00,NNW,345,7.0,10.0,95,0.00,,,-99.99,,2013-03-01 11:42:00,
2013-03-01 05:52:00,26.0,25.0,-100.00,NNW,345,4.0,10.0,95,0.01,,,-99.99,,2013-03-01 11:52:00,
2013-03-01 06:01:00,26.0,25.0,-100.00,North,350,4.0,10.0,95,0.00,,,-99.99,,2013-03-01 12:01:00,
2013-03-01 06:11:00,27.0,26.0,-100.00,North,10,5.0,9.0,95,0.00,,,-99.99,,2013-03-01 12:11:00,
2013-03-01 06:21:00,27.0,26.0,-100.00,North,0,4.0,9.0,95,0.00,,,-99.99,,2013-03-01 12:21:00,
2013-03-01 06:32:00,27.0,25.0,-100.00,North,350,5.0,11.0,95,0.01,,,-99.99,,2013-03-01 12:32:00,
2013-03-01 06:42:00,26.0,25.0,-100.00,NNW,340,4.0,7.0,95,0.04,,,-99.99,,2013-03-01 12:42:00,
2013-03-01 06:52:00,26.0,25.0,-100.00,NNW,345,6.0,8.0,95,0.03,,,-99.99,,2013-03-01 12:52:00,
2013-03-01 07:01:00,26.0,25.0,-100.00,NNW,330,6.0,9.0,95,0.04,,,-99.99,,2013-03-01 13:01:00,
2013-03-01 07:11:00,26.0,25.0,-100.00,NNW,345,4.0,7.0,95,0.04,,,-99.99,,2013-03-01 13:11:00,
2013-03-01 07:21:00,26.0,25.0,-100.00,North,5,4.0,9.0,95,0.04,,,-99.99,,2013-03-01 13:21:00,
2013-03-01 07:32:00,26.0,25.0,-100.00,North,350,5.0,8.0,95,0.08,,,-99.99,,2013-03-01 13:32:00,
2013-03-01 07:42:00,26.0,25.0,-100.00,North,10,5.0,9.0,95,0.06,,,-99.99,,2013-03-01 13:42:00,
2013-03-01 07:51:00,26.0,25.0,-100.00,North,10,6.0,9.0,95,0.07,,,-99.99,,2013-03-01 13:51:00,
2013-03-01 08:01:00,26.0,25.0,-100.00,North,0,4.0,9.0,95,0.03,,,-99.99,,2013-03-01 14:01:00,
2013-03-01 08:11:00,27.0,25.0,-100.00,NNE,30,6.0,10.0,95,0.03,,,-99.99,,2013-03-01 14:11:00,
2013-03-01 08:21:00,26.0,25.0,-100.00,NE,40,7.0,9.0,95,0.03,,,-99.99,,2013-03-01 14:21:00,
2013-03-01 08:32:00,26.0,25.0,-100.00,NNE,25,7.0,11.0,95,0.01,,,-99.99,,2013-03-01 14:32:00,
2013-03-01 08:42:00,27.0,26.0,-100.00,NNE,30,9.0,13.0,95,0.00,,,-99.99,,2013-03-01 14:42:00,
2013-03-01 08:52:00,27.0,26.0,-100.00,NE,40,8.0,13.0,95,0.00,,,-99.99,,2013-03-01 14:52:00,
2013-03-01 09:01:00,27.0,26.0,-100.00,NNE,30,7.0,11.0,95,0.00,,,-99.99,,2013-03-01 15:01:00,
2013-03-01 09:11:00,27.0,26.0,-100.00,NE,35,7.0,12.0,95,0.18,,,-99.99,,2013-03-01 15:11:00,
2013-03-01 09:21:00,27.0,26.0,-100.00,NE,40,9.0,13.0,95,0.20,,,-99.99,,2013-03-01 15:21:00,
2013-03-01 09:31:00,27.0,26.0,-100.00,NE,55,6.0,11.0,95,0.18,,,-99.99,,2013-03-01 15:31:00,
2013-03-01 09:42:00,27.0,26.0,-100.00,NNE,30,6.0,11.0,95,0.00,,,-99.99,,2013-03-01 15:42:00,
2013-03-01 09:52:00,27.0,26.0,-100.00,NE,40,8.0,11.0,95,0.01,,,-99.99,,2013-03-01 15:52:00,
2013-03-01 10:01:00,27.0,26.0,-100.00,NE,40,8.0,11.0,95,0.01,,,-99.99,,2013-03-01 16:01:00,
2013-03-01 10:11:00,27.0,26.0,-100.00,East,80,6.0,11.0,95,0.01,,,-99.99,,2013-03-01 16:11:00,
2013-03-01 10:21:00,27.0,26.0,-100.00,East,100,6.0,10.0,95,0.00,,,-99.99,,2013-03-01 16:21:00,
2013-03-01 10:32:00,27.0,26.0,-100.00,ESE,105,7.0,11.0,95,0.00,,,-99.99,,2013-03-01 16:32:00,
2013-03-01 10:41:00,27.0,26.0,-100.00,ESE,105,7.0,11.0,95,0.00,,,-99.99,,2013-03-01 16:41:00,
2013-03-01 10:51:00,27.0,26.0,-100.00,East,90,8.0,14.0,95,0.07,,,-99.99,,2013-03-01 16:51:00,
2013-03-01 11:01:00,27.0,26.0,-100.00,ENE,70,8.0,12.0,95,0.14,,,-99.99,,2013-03-01 17:01:00,
2013-03-01 11:11:00,27.0,26.0,-100.00,ENE,70,8.0,12.0,95,0.14,,,-99.99,,2013-03-01 17:11:00,
2013-03-01 11:21:00,27.0,26.0,-100.00,ENE,70,7.0,12.0,95,0.14,,,-99.99,,2013-03-01 17:21:00,
2013-03-01 11:32:00,27.0,25.0,-100.00,East,90,10.0,14.0,91,0.10,,,-99.99,,2013-03-01 17:32:00,
2013-03-01 11:41:00,27.0,25.0,-100.00,East,90,10.0,14.0,91,0.10,,,-99.99,,2013-03-01 17:41:00,
2013-03-01 11:52:00,27.0,24.0,-100.00,ENE,70,9.0,14.0,87,0.10,,,-99.99,,2013-03-01 17:52:00,
2013-03-01 12:01:00,27.0,24.0,-100.00,NE,55,9.0,15.0,88,0.10,,,-99.99,,2013-03-01 18:01:00,
2013-03-01 12:12:00,27.0,25.0,-100.00,ENE,75,9.0,12.0,91,0.11,,,-99.99,,2013-03-01 18:12:00,
2013-03-01 12:22:00,28.0,26.0,-100.00,East,80,8.0,12.0,92,0.08,,,-99.99,,2013-03-01 18:22:00,
2013-03-01 12:31:00,28.0,26.0,-100.00,ENE,65,11.0,14.0,93,0.07,,,-99.99,,2013-03-01 18:31:00,
2013-03-01 12:41:00,28.0,27.0,-100.00,ENE,60,6.0,14.0,95,0.06,,,-99.99,,2013-03-01 18:41:00,
2013-03-01 12:52:00,28.0,25.0,-100.00,ENE,60,9.0,15.0,90,0.13,,,-99.99,,2013-03-01 18:52:00,
2013-03-01 13:01:00,28.0,24.0,-100.00,NE,55,9.0,12.0,85,0.14,,,-99.99,,2013-03-01 19:01:00,
2013-03-01 13:11:00,28.0,24.0,-100.00,NE,55,9.0,12.0,85,0.14,,,-99.99,,2013-03-01 19:11:00,
2013-03-01 13:21:00,28.0,26.0,-100.00,NNE,20,8.0,11.0,89,0.13,,,-99.99,,2013-03-01 19:21:00,
2013-03-01 13:32:00,28.0,24.0,-100.00,NE,40,6.0,12.0,84,0.08,,,-99.99,,2013-03-01 19:32:00,
2013-03-01 13:42:00,28.0,24.0,-100.00,NE,40,6.0,12.0,84,0.08,,,-99.99,,2013-03-01 19:42:00,
2013-03-01 13:52:00,28.0,25.0,-100.00,NNE,25,8.0,13.0,87,0.14,,,-99.99,,2013-03-01 19:52:00,
2013-03-01 14:01:00,28.0,25.0,-100.00,NNE,25,8.0,13.0,87,0.14,,,-99.99,,2013-03-01 20:01:00,
2013-03-01 14:11:00,28.0,24.0,-100.00,NNE,25,9.0,16.0,81,0.14,,,-99.99,,2013-03-01 20:11:00,
2013-03-01 14:21:00,28.0,23.0,-100.00,NNE,30,11.0,16.0,78,0.00,,,-99.99,,2013-03-01 20:21:00,
2013-03-01 14:31:00,28.0,22.0,-100.00,NE,50,11.0,14.0,77,0.11,,,-99.99,,2013-03-01 20:31:00,
2013-03-01 14:41:00,28.0,22.0,-100.00,NE,50,11.0,14.0,77,0.11,,,-99.99,,2013-03-01 20:41:00,
2013-03-01 14:52:00,28.0,23.0,-100.00,NE,40,9.0,15.0,79,0.00,,,-99.99,,2013-03-01 20:52:00,
2013-03-01 15:01:00,28.0,23.0,-100.00,NE,40,9.0,15.0,79,0.00,,,-99.99,,2013-03-01 21:01:00,
2013-03-01 15:11:00,28.0,23.0,-100.00,NE,40,10.0,14.0,79,0.11,,,-99.99,,2013-03-01 21:11:00,
2013-03-01 15:21:00,28.0,23.0,-100.00,NE,50,9.0,14.0,80,0.00,,,-99.99,,2013-03-01 21:21:00,
2013-03-01 15:32:00,28.0,23.0,-100.00,NE,40,11.0,16.0,81,0.00,,,-99.99,,2013-03-01 21:32:00,
2013-03-01 15:41:00,28.0,23.0,-100.00,NE,40,11.0,16.0,81,0.00,,,-99.99,,2013-03-01 21:41:00,
2013-03-01 15:51:00,28.0,24.0,-100.00,NE,40,7.0,15.0,84,0.00,,,-99.99,,2013-03-01 21:51:00,
2013-03-01 16:01:00,28.0,24.0,-100.00,NE,40,7.0,15.0,84,0.00,,,-99.99,,2013-03-01 22:01:00,
2013-03-01 16:11:00,28.0,24.0,-100.00,NE,45,7.0,14.0,86,0.00,,,-99.99,,2013-03-01 22:11:00,
2013-03-01 16:21:00,28.0,25.0,-100.00,NNE,30,6.0,12.0,89,0.00,,,-99.99,,2013-03-01 22:21:00,
2013-03-01 16:31:00,28.0,27.0,-100.00,North,10,9.0,12.0,95,0.11,,,-99.99,,2013-03-01 22:31:00,
2013-03-01 16:41:00,28.0,27.0,-100.00,North,10,9.0,12.0,95,0.11,,,-99.99,,2013-03-01 22:41:00,
2013-03-01 16:51:00,27.0,26.0,-100.00,NNE,20,10.0,15.0,93,0.06,,,-99.99,,2013-03-01 22:51:00,
2013-03-01 17:01:00,27.0,26.0,-100.00,NNE,20,10.0,15.0,93,0.06,,,-99.99,,2013-03-01 23:01:00,
2013-03-01 17:11:00,27.0,26.0,-100.00,NE,35,11.0,16.0,94,0.00,,,-99.99,,2013-03-01 23:11:00,
2013-03-01 17:21:00,27.0,25.0,-100.00,NE,40,8.0,16.0,92,0.00,,,-99.99,,2013-03-01 23:21:00,
2013-03-01 17:31:00,27.0,25.0,-100.00,NE,40,9.0,14.0,91,0.00,,,-99.99,,2013-03-01 23:31:00,
2013-03-01 17:41:00,27.0,25.0,-100.00,NE,40,9.0,14.0,91,0.00,,,-99.99,,2013-03-01 23:41:00,
2013-03-01 17:52:00,27.0,26.0,-100.00,North,10,11.0,16.0,95,0.00,,,-99.99,,2013-03-01 23:52:00,
2013-03-01 18:02:00,27.0,26.0,-100.00,North,10,11.0,16.0,95,0.00,,,-99.99,,2013-03-02 00:02:00,
2013-03-01 18:11:00,27.0,26.0,-100.00,NNE,20,10.0,14.0,95,0.00,,,-99.99,,2013-03-02 00:11:00,
2013-03-01 18:21:00,27.0,25.0,-100.00,NNE,30,9.0,14.0,95,0.00,,,-99.99,,2013-03-02 00:21:00,
2013-03-01 18:32:00,26.0,25.0,-100.00,NNE,15,9.0,11.0,95,0.00,,,-99.99,,2013-03-02 00:32:00,
2013-03-01 18:42:00,26.0,25.0,-100.00,NNE,15,9.0,11.0,95,0.00,,,-99.99,,2013-03-02 00:42:00,
2013-03-01 18:52:00,26.0,25.0,-100.00,North,5,7.0,12.0,95,0.00,,,-99.99,,2013-03-02 00:52:00,
2013-03-01 19:01:00,26.0,25.0,-100.00,North,5,7.0,12.0,95,0.00,,,-99.99,,2013-03-02 01:01:00,
2013-03-01 19:11:00,26.0,25.0,-100.00,NNE,15,7.0,13.0,95,0.00,,,-99.99,,2013-03-02 01:11:00,
2013-03-01 19:21:00,26.0,25.0,-100.00,NNE,20,7.0,12.0,94,0.00,,,-99.99,,2013-03-02 01:21:00,
2013-03-01 19:31:00,26.0,24.0,-100.00,North,10,9.0,12.0,95,0.00,,,-99.99,,2013-03-02 01:31:00,
2013-03-01 19:41:00,26.0,24.0,-100.00,North,10,9.0,12.0,95,0.00,,,-99.99,,2013-03-02 01:41:00,
2013-03-01 19:51:00,26.0,24.0,-100.00,North,10,7.0,11.0,95,0.00,,,-99.99,,2013-03-02 01:51:00,
2013-03-01 20:01:00,26.0,24.0,-100.00,North,10,7.0,11.0,95,0.00,,,-99.99,,2013-03-02 02:01:00,
2013-03-01 20:11:00,25.0,24.0,-100.00,North,10,7.0,12.0,95,0.00,,,-99.99,,2013-03-02 02:11:00,
2013-03-01 20:21:00,25.0,24.0,-100.00,NNE,20,9.0,12.0,95,0.00,,,-99.99,,2013-03-02 02:21:00,
2013-03-01 20:32:00,25.0,24.0,-100.00,North,5,4.0,11.0,95,0.00,,,-99.99,,2013-03-02 02:32:00,
2013-03-01 20:41:00,25.0,24.0,-100.00,North,5,4.0,11.0,95,0.00,,,-99.99,,2013-03-02 02:41:00,
2013-03-01 20:52:00,24.0,23.0,-100.00,North,5,4.0,7.0,95,0.00,,,-99.99,,2013-03-02 02:52:00,
2013-03-01 21:01:00,24.0,23.0,-100.00,North,5,4.0,7.0,95,0.00,,,-99.99,,2013-03-02 03:01:00,
2013-03-01 21:11:00,24.0,23.0,-100.00,NNW,340,4.0,7.0,95,0.00,,,-99.99,,2013-03-02 03:11:00,
2013-03-01 21:21:00,24.0,22.0,-100.00,NNW,340,4.0,7.0,95,0.00,,,-99.99,,2013-03-02 03:21:00,
2013-03-01 21:32:00,23.0,22.0,-100.00,NNW,345,4.0,9.0,95,0.00,,,-99.99,,2013-03-02 03:32:00,
2013-03-01 21:41:00,23.0,22.0,-100.00,NNW,345,4.0,9.0,95,0.00,,,-99.99,,2013-03-02 03:41:00,
2013-03-01 21:52:00,23.0,22.0,-100.00,NNW,340,5.0,8.0,95,0.00,,,-99.99,,2013-03-02 03:52:00,
2013-03-01 22:01:00,23.0,22.0,-100.00,NNW,340,5.0,8.0,95,0.00,,,-99.99,,2013-03-02 04:01:00,
2013-03-01 22:11:00,24.0,23.0,-100.00,NNW,335,4.0,7.0,95,0.00,,,-99.99,,2013-03-02 04:11:00,
2013-03-01 22:21:00,24.0,23.0,-100.00,North,350,6.0,10.0,95,0.00,,,-99.99,,2013-03-02 04:21:00,
2013-03-01 22:32:00,25.0,23.0,-100.00,North,0,7.0,12.0,92,0.00,,,-99.99,,2013-03-02 04:32:00,
2013-03-01 22:41:00,25.0,23.0,-100.00,North,0,7.0,12.0,92,0.00,,,-99.99,,2013-03-02 04:41:00,
2013-03-01 22:51:00,25.0,23.0,-100.00,North,5,10.0,14.0,91,0.00,,,-99.99,,2013-03-02 04:51:00,
2013-03-01 23:01:00,25.0,23.0,-100.00,North,5,10.0,14.0,91,0.00,,,-99.99,,2013-03-02 05:01:00,
2013-03-01 23:12:00,25.0,23.0,-100.00,NNE,15,10.0,13.0,91,0.00,,,-99.99,,2013-03-02 05:12:00,
2013-03-01 23:22:00,25.0,23.0,-100.00,NNE,15,6.0,13.0,92,0.00,,,-99.99,,2013-03-02 05:22:00,
2013-03-01 23:32:00,25.0,22.0,-100.00,North,5,8.0,12.0,88,0.00,,,-99.99,,2013-03-02 05:32:00,
2013-03-01 23:41:00,25.0,22.0,-100.00,North,5,8.0,12.0,88,0.00,,,-99.99,,2013-03-02 05:41:00,
2013-03-01 23:52:00,25.0,22.0,-100.00,North,5,8.0,11.0,87,0.00,,,-99.99,,2013-03-02 05:52:00,